Погода в Газанджыке

Погода в Газанджыке : погода сейчас, прогноз погоды и архив. Всё, что Вы хотите узнать о погоде в Газанджыке!

Поиск расширенной информации на нашем сайте:

Другие новости

Новости СМИ2

Главная страница сайта

Новости сайта

03.07.2017

Напоминаем, что на нашем специализированном сайте Метеоцентр.Азия вы можете получить высокодетализированные автоматические прогнозы погоды по пунктам России, СНГ и мира в авиационном формате (включающие направление и скорость ветра, видимость, явления погоды, количество и форму облачности, нижнюю и верхнюю границу облачности).


Погода в Газанджыке - сегодня

Время (UTC), дата Ветер
(°,м/с) 
Видим.   Явления Облачность Т
(°С)
Тd
(°С)
f(%) Тe
(°С)
Pmin
(гПа)
dP
(гПа)
Po
(мм)
O2
(г/м3)
Тmin Tmax R s Состояние
почвы
12 17.02.18 090 (В) 10 км    10/10 300 м 
[St]
+6 +2.9 80 +3  1023.9  -1.4  765  301           
15 17.02.18 100 (В) 10 км    10/10 300 м 
[St]
+5.6 +3.5 86 +4  1023.9  765  301    +6.3  0.0     
18 17.02.18 090 (В) 10 км    10/10 300 м 
[St]
+5.6 +2.9 83 +4  1023.4  -0.5  764  301    +6.3  0.0     
21 17.02.18 090 (В) 10 км    10/10 300 м 
[Sc]
+4.7 +1.9 82 +3  1023.2  -0.2  764  302           
00 18.02.18 090 (В) 10 км    10/10 600 м 
[Sc]
+3.4 -0.4 76 1020.3  -2.9  762  303           
03 18.02.18 090 (В) 10 км  гроза, пыльная буря  10/10 600 м 
[Sc]
+2.3 -0.2 84 -1  1019.3  -1             
06 18.02.18 100 (В) 11  10 км    10/10 300 м 
[St]
+3.7 +0.5 80 -1  1018.4  -0.9  761  302  +2.3         
09 18.02.18 100 (В) 10  10 км    10/10 300 м 
[St]
+6.8 +3 77 +4  1015.2  -3.2  758  298           
12 18.02.18 090 (В) 10  10 км    9/9 300 м 
[St]
+10.4 +5.1 70 +8  1012.1  -3  756  293           
15 18.02.18 100 (В) 10 км    10/10 600 м 
[Sc]
+9.4 +4 69 +7  1011.3  -0.8  755  294    +10.6       
18 18.02.18 090 (В) 10 км    10/10 600 м 
[Sc]
+7.6 +2.3 69 +6  1011.4  755  296    +10.6       
21 18.02.18 080 (В) 10 км    10/10 600 м 
[Sc]
+6.3 +2.9 79 +7  1011.6  0.2  755  297           
00 19.02.18 080 (В) 10 км  в посл. час дождь  10/10 600 м 
[Sc]
+6.9 +4.4 84 +8  1012.6  756  297           
03 19.02.18 290 (З) 10 км    10/10 600 м 
[Sc]
+8.3 +5.1 80 +9  1013.6  1.1        0.0     
06 19.02.18 240 (ЮЗ) 20000 м    9/9 600 м 
[Sc]
+10.7 +5.8 72 +11  1014.5  0.9  758  293  +6.2    0.0     
09 19.02.18 260 (З) 10 км    10/10 600 м 
[Sc]
+10.4 +5.1 70 +9  1014.8  0.3  758  293           
12 19.02.18 250 (З) 10 км    10/10 600 м 
[Frnb|Ns]
+9.8 +6.1 78 +8  1014.9  0.1  758  294           
15 19.02.18 260 (З) 10 км    8/8 600 м 
[Sc]
+8.4 +4.8 78 +7  1016.9  760  296    +12.9       
18 19.02.18 260 (З) 10 км    10/10 600 м 
[Sc]
+6.7 +3.4 79 +5  1018.1  1.2  760  299    +12.9       
21 19.02.18 250 (З) 10 км    10/10 600 м 
[Cu Sc]
+6.2 +2.6 78 +4  1017.9  -0.3  760  299           
00 20.02.18 240 (ЮЗ) 10 км    10/10 600 м 
[Sc]
+6.1 +1.6 73 +4  1019  1.1  761  300           
03 20.02.18 тихо ()   10 км    ясно 
-4.5 -6.8 84 -5  1027.9  -0.2  758  311           
06 20.02.18 тихо ()   20000 м    1/1 1000 м 
[Sc]
+3.3 -1.1 73 +3  1029.6  1.4  769  306  -1.6         
09 20.02.18 240 (ЮЗ) 20000 м    10/10 600 м 
[Frnb|Ns]
+8.8 +2.3 64 +7  1020  -0.7  762  297           
12 20.02.18 260 (З) 20000 м    8/5 1000 м средняя 
[Sc|Ac und]
+9 +4.5 73 +7  1019.6  -0.4  762  296           
Время (UTC), дата Ветер
(°,м/с) 
Видим.   Явления Облачность Т
(°С)
Тd
(°С)
f(%) Тe
(°С)
Pmin
(гПа)
dP
(гПа)
Po
(мм)
O2
(г/м3)
Тmin Tmax R s Состояние
почвы

Для получения пояснительной информации подведите курсор к названию столбца.

ПОГОДА в Газанджыке - архив

Всё, что Вы хотите узнать о погоде в Газанджыке - удобно и подробно!

Выберите нужную дату (начиная с 1 января 2015* года) и нажмите кнопку "Найти".
Будут отображены архивные сводки погоды по пункту Газанджык, начиная с указанной даты.


Отображать данные в формате CSV (для использования в таблицах Excel)


Внимание! Наш архив погоды предназначен исключительно для личного некоммерческого использования в познавательных целях. Если Вам необходимы официальные справки о состоянии погоды (для производственных, юридических, коммерческих и т.п. целей), обращайтесь в органы Росгидромета.

*Примечание: данная дата относится к архиву по метеостанциям СССР (Россия, СНГ, Балтия).
Архив по метеостанциям Зарубежной Европы и Азии (кроме Китая) хранится 10 дней, по другим регионам земного шара (Китай, Африка, Америка, Австралия, Океания) - 1 день.

Газанджык - район местоположения метеостанции


Название, широта, долгота, высота метеостанции:
Газанджык 39.2°ш. 55.5°д. 31 м над ур. моря [Туркменистан]

Дополнительная информация

В oтличие oт бoльшинства пoгoдных сайтoв мы публикуем пoдрoбную метеoинфoрмацию в детальнoм прoфессиoнальнoм фoрмате.

Характеристики температуры и влажнoсти вoздуха измеряются на высoте 2 м в тени вдали oт зданий и деревьев.
Скoрoсть ветра измеряется на высoте 10 м (на урoвне рoста челoвека скoрoсть ветра ниже в 1.5-2 раза). Если метеoстанция нахoдится в гoрoде или в лесу, тo скoрoсть ветра занижена на 2-4 м/с пo сравнению с oткрытым местoм. Скoрoсть ветра над акватoриями крупных рек и oзёр, а также на вершинах хoлмoв на 2-5 м/с выше, чем в oбычных услoвиях.
Атмoсфернoе давление в разных тoчках местнoсти мoжет значительнo oтличаться oт давления на метеoстанции, в зависимoсти oт услoвий рельефа (при пoдъёме на 10 м давление пoнижается примернo на 1 мм рт.ст.).